Kansas City, MO

5:35 PM CST on February 20, 2017 (GMT -0600)
Kansas City International

Weather History for KMCI - January, 2014

Change the Weather History Date:

Monday, January 27, 2014

  Actual Average Record
Temperature  
Mean Temperature 11 °F 29 °F  
Max Temperature 17 °F 39 °F 70 °F (1934)
Min Temperature 4 °F 20 °F -9 °F (1940)
Degree Days  
Heating Degree Days 54 36  
Month to date heating degree days 1084 972  
Since 1 July heating degree days 3281 3014  
Cooling Degree Days 0 0  
Month to date cooling degree days 0 0  
Year to date cooling degree days 0 0  
Moisture  
Dew Point -11 °F    
Average Humidity 44    
Maximum Humidity 56    
Minimum Humidity 31    
Precipitation  
Precipitation 0.00 in 0.04 in 1.07 in (1995)
Month to date precipitation 0.36 0.90  
Year to date precipitation 0.36 0.90  
Snow  
Snow 0.00 in 0.20 in 5.00 in (1997)
Month to date snowfall 5.1 3.9  
Since 1 July snowfall 10.8 10.1  
Snow Depth 0.00 in    
Sea Level Pressure  
Sea Level Pressure 30.48 in    
Wind  
Wind Speed 12 mph (NNW)    
Max Wind Speed 30 mph    
Max Gust Speed 36 mph    
Visibility 10 miles    
Events      
T = Trace of Precipitation, MM = Missing Value Source: NWS Daily Summary

Daily Weather History Graph

Daily Weather History Graph

Search for Another Location

Airport or City:

Trip Planner

Search our weather history database for the weather conditions in past years. The results will help you decide how hot, cold, wet, or windy it might be!

Date:

Astronomy

Jan. 27, 2014 Rise Set
Actual Time 7:30 AM CST 5:33 PM CST
Civil Twilight 7:01 AM CST 6:02 PM CST
Nautical Twilight 6:29 AM CST 6:34 PM CST
Astronomical Twilight 5:57 AM CST 7:06 PM CST
Moon 4:11 AM CST (1/27) 2:20 PM CST (1/27)
Length of Visible Light 11h 00m
Length of Day
10h 03m
Waning Crescent, 14% of the Moon is Illuminated
Jan 27
Waning Crescent
Jan 30
New
Feb 6
First Quarter
Feb 14
Full
Feb 22
Last Quarter

Hourly Weather History & Observations

Time (CST) Temp. Windchill Dew Point Humidity Pressure Visibility Wind Dir Wind Speed Gust Speed Precip Events Conditions
12:53 AM 15.1 °F -2.9 °F -6.0 °F 39% 30.28 in 10.0 mi North 21.9 mph 29.9 mph N/A   Clear
1:53 AM 12.9 °F -5.3 °F -4.0 °F 47% 30.32 in 10.0 mi North 20.7 mph 27.6 mph N/A   Clear
2:53 AM 10.0 °F -9.5 °F -13.0 °F 35% 30.36 in 10.0 mi North 21.9 mph 31.1 mph N/A   Scattered Clouds
3:53 AM 8.1 °F -9.0 °F -11.9 °F 40% 30.38 in 10.0 mi NNW 15.0 mph 25.3 mph N/A   Scattered Clouds
4:53 AM 6.1 °F -7.8 °F -11.9 °F 44% 30.40 in 10.0 mi NNW 9.2 mph - N/A   Partly Cloudy
5:53 AM 5.0 °F -13.6 °F -13.0 °F 43% 30.43 in 10.0 mi NNW 16.1 mph 24.2 mph N/A   Partly Cloudy
6:53 AM 3.9 °F -13.7 °F -11.0 °F 50% 30.45 in 10.0 mi NNW 13.8 mph - N/A   Partly Cloudy
7:53 AM 3.9 °F -10.4 °F -9.0 °F 55% 30.48 in 10.0 mi NNW 9.2 mph - N/A   Partly Cloudy
8:53 AM 6.1 °F -12.2 °F -8.0 °F 53% 30.49 in 10.0 mi NW 16.1 mph - N/A   Partly Cloudy
9:53 AM 8.1 °F -9.0 °F -11.0 °F 42% 30.52 in 9.0 mi North 15.0 mph 24.2 mph N/A   Scattered Clouds
10:53 AM 10.0 °F -8.6 °F -11.9 °F 37% 30.53 in 10.0 mi NNW 19.6 mph - N/A   Scattered Clouds
11:53 AM 12.0 °F -3.4 °F -13.0 °F 32% 30.52 in 10.0 mi NW 13.8 mph - N/A   Scattered Clouds
12:53 PM 14.0 °F 1.2 °F -11.9 °F 31% 30.51 in 10.0 mi North 10.4 mph - N/A   Mostly Cloudy
1:53 PM 12.9 °F 0.7 °F -11.0 °F 34% 30.48 in 10.0 mi NNW 9.2 mph 21.9 mph N/A   Mostly Cloudy
2:53 PM 12.9 °F -1.6 °F -11.0 °F 34% 30.48 in 10.0 mi NNW 12.7 mph - N/A   Mostly Cloudy
3:53 PM 12.0 °F 0.5 °F -11.0 °F 35% 30.49 in 10.0 mi NW 8.1 mph - N/A   Mostly Cloudy
4:53 PM 12.0 °F 2.7 °F -11.0 °F 35% 30.51 in 10.0 mi NW 5.8 mph - N/A   Mostly Cloudy
5:53 PM 7.0 °F -4.5 °F -9.9 °F 46% 30.51 in 10.0 mi North 6.9 mph - N/A   Mostly Cloudy
6:53 PM 9.0 °F -0.9 °F -11.0 °F 40% 30.54 in 10.0 mi NW 5.8 mph - N/A   Scattered Clouds
7:53 PM 7.0 °F -3.3 °F -9.9 °F 46% 30.53 in 10.0 mi North 5.8 mph - N/A   Clear
8:53 PM 6.1 °F -4.3 °F -9.9 °F 48% 30.53 in 10.0 mi North 5.8 mph - N/A   Clear
9:53 PM 6.1 °F -2.8 °F -9.9 °F 48% 30.55 in 10.0 mi NNE 4.6 mph - N/A   Clear
10:53 PM 6.1 °F -4.3 °F -9.9 °F 48% 30.55 in 10.0 mi NNE 5.8 mph - N/A   Clear
11:53 PM 3.9 °F -6.9 °F -9.9 °F 53% 30.55 in 10.0 mi NNE 5.8 mph - N/A   Clear